Home   Weather   Bamberg   Past weeks

Flag for Germany Past Weather in Bamberg, Bavaria, Germany — Yesterday and Last 2 Weeks

43 °F

Light rain. Overcast.

Feels Like: 43 °F
Forecast: 37 / 48 °F
Wind: 2 mph from North

Location: Nuernberg

Current Time: Oct 20, 2016 at 11:30:28 PM

Latest Report: Oct 20, 2016 at 10:50 PM

Visibility: N/A

Pressure: 29.89 "Hg

Humidity: 100%

Dew Point: 43 °F

Location of BambergLocation

Past Weather in Bamberg — Graph


Bamberg Temperature Yesterday

Maximum temperature yesterday: 52 °F (at 12:50 AM)
Minimum temperature yesterday: 46 °F (at 7:50 AM)
Average temperature yesterday: 49 °F

High & Low Weather Summary for the Past Weeks

High66 °F (Oct 16, 2:20 PM)100% (Oct 6, 10:20 AM)30.24 "Hg (Oct 6, 10:20 AM)
Low30 °F (Oct 10, 4:20 AM)47% (Oct 10, 5:50 PM)29.71 "Hg (Oct 14, 6:20 PM)
Average46 °F90%30.08 "Hg
* Reported Oct 5 10:20 PM — Oct 20 10:20 PM, Bamberg, Weather by CustomWeather, © 2016

Note: Actual official high and low records may vary slightly from our data, if they occured in-between our weather recording intervals... More about our weather records


Bamberg Weather History for the Previous 24 Hours

Scroll right to see more
Time TempWeatherWind HumidityBarometerVisibility
10:20 PM
Thu, Oct 20
43 °FLight rain. Partly cloudy.3 mph100%29.89 "HgN/A
9:50 PM41 °FLight rain. Mostly cloudy.3 mph100%29.89 "HgN/A
9:20 PM43 °FPassing clouds.2 mph100%29.89 "HgN/A
8:50 PM43 °FPassing clouds.3 mph100%29.89 "HgN/A
8:20 PM43 °FLight rain. Passing clouds.3 mph100%29.89 "HgN/A
7:50 PM43 °FLight rain. Mostly cloudy.5 mph100%29.89 "HgN/A
7:20 PM43 °FLight rain. Overcast.6 mph100%29.89 "HgN/A
6:50 PM43 °FLight rain. Passing clouds.5 mph100%29.89 "HgN/A
6:20 PM43 °FLight rain. Mostly cloudy.5 mph100%29.89 "HgN/A
5:50 PM45 °FLight rain. More clouds than sun.5 mph93%29.89 "HgN/A
5:20 PM45 °FLight rain. More clouds than sun.6 mph93%29.89 "HgN/A
4:50 PM45 °FLight rain. More clouds than sun.5 mph93%29.89 "HgN/A
4:20 PM45 °FLight rain. Mostly cloudy.3 mph93%29.89 "HgN/A
3:50 PM45 °FLight rain. Mostly cloudy.9 mph93%29.89 "HgN/A
3:20 PM45 °FLight rain. Partly sunny.9 mph93%29.92 "HgN/A
2:50 PM45 °FRain. More clouds than sun.13 mph93%29.92 "HgN/A
2:20 PM45 °FLight rain. Mostly cloudy.3 mph100%29.92 "HgN/A
1:50 PM45 °FLight rain. Mostly cloudy.2 mph100%29.92 "HgN/A
1:20 PM45 °FLight rain. Mostly cloudy.5 mph93%29.92 "HgN/A
12:50 PM45 °FRain. Mostly cloudy.3 mph93%29.92 "HgN/A
12:20 PM45 °FLight rain. More clouds than sun.3 mph100%29.95 "HgN/A
11:50 AM45 °FLight rain. Mostly cloudy.6 mph100%29.95 "HgN/A
11:20 AM45 °FLight rain. Partly sunny.8 mph100%29.95 "HgN/A
10:50 AM46 °FLight rain. Partly sunny.3 mph93%29.95 "HgN/A
10:20 AM46 °FBroken clouds.3 mph93%29.95 "HgN/A
9:50 AM45 °FBroken clouds.5 mph93%29.95 "HgN/A
9:20 AM43 °FScattered clouds.5 mph100%29.95 "HgN/A
8:50 AM41 °FBroken clouds.5 mph100%29.95 "HgN/A
8:20 AM41 °FBroken clouds.3 mph100%29.95 "HgN/A
7:50 AM39 °FScattered clouds.3 mph100%29.95 "HgN/A
7:20 AM39 °FFog.2 mph100%29.95 "HgN/A
6:50 AM41 °FFog.1 mph100%29.95 "HgN/A
6:20 AM41 °FPassing clouds.3 mph100%29.95 "HgN/A
5:50 AM41 °FPassing clouds.2 mph100%29.95 "HgN/A
5:20 AM43 °FPassing clouds.3 mph93%29.95 "HgN/A
4:50 AM43 °FPartly cloudy.2 mph93%29.95 "HgN/A
4:20 AM43 °FPartly cloudy.2 mph93%29.98 "HgN/A
3:50 AM43 °FLight rain. Partly cloudy.3 mph93%29.98 "HgN/A
3:20 AM43 °FLight rain. Partly cloudy.7 mph93%29.98 "HgN/A
2:50 AM45 °FRain. Partly cloudy.7 mph93%29.98 "HgN/A
2:20 AM45 °FLight rain. Partly cloudy.5 mph93%29.98 "HgN/A
1:50 AM45 °FLight rain. Partly cloudy.13 mph93%29.98 "HgN/A
1:20 AM46 °FLight rain. Partly cloudy.6 mph93%29.95 "HgN/A
12:50 AM46 °FLight rain. Partly cloudy.6 mph93%29.98 "HgN/A
12:20 AM46 °FPartly cloudy.8 mph87%29.98 "HgN/A
11:50 PM
Wed, Oct 19
46 °FPartly cloudy.7 mph87%29.98 "HgN/A
11:20 PM46 °FLight rain. Partly cloudy.7 mph87%29.98 "HgN/A
Weather by CustomWeather, © 2016

See weather overviewHow to use our weather pages